Flag Weather past 2 weeks in Newport News, Virginia, U.S.A.

Now
72 °F

Passing clouds.


Feels Like: 74 °F
Forecast: 49 / 65 °F
Wind: 12 mph from Southwest

Location: Newport News / Williamsburg International Airport

Current Time: Nov 24, 2014 at 8:00:34 PM

Latest Report: Nov 24, 2014 at 6:54 PM


Visibility: 10 mi

Pressure: 29.79 "Hg

Humidity: 73%

Dew point: 63 °F

Location of Newport NewsLocation

Historic Weather in Newport News — Graph

°F

Newport News temperature yesterday

Maximum temperature yesterday: 66 °F (at 10:54 PM)
Minimum temperature yesterday: 34 °F (at 2:54 AM)
Average temperature yesterday: 51 °F

Past Weeks' High & Low Weather Summary

 TemperatureHumidityPressure
High76 °F (Nov 24, 12:54 PM)93% (Nov 10, 7:54 AM)30.58 "Hg (Nov 10, 7:54 AM)
Low24 °F (Nov 22, 4:54 AM)26% (Nov 22, 1:54 PM)29.55 "Hg (Nov 17, 4:54 PM)
Average48 °F62%30.12 "Hg
* Reported Nov 9 6:54 PM — Nov 24 6:54 PM, Newport News, Weather by CustomWeather, © 2014

Note: Actual official high and low records may vary slightly from our data, if they occured in-between our weather recording intervals... More about our weather records

Advertising

Newport News weather history for previous 24 hours

 ConditionsComfort  
Time TempWeatherWind HumidityBarometerVisibility
6:54 PM
Nov 24
72 °FPassing clouds.12 mph73%29.79 "Hg10 mi
5:54 PM73 °FPassing clouds.14 mph71%29.76 "Hg10 mi
4:54 PM74 °FMostly cloudy.14 mph69%29.75 "Hg10 mi
3:54 PM75 °FMostly cloudy.15 mph64%29.75 "Hg9 mi
2:54 PM75 °FOvercast.14 mph60%29.74 "Hg10 mi
1:54 PM76 °FSunny.24 mph54%29.74 "Hg10 mi
12:54 PM76 °FSunny.20 mph54%29.76 "Hg10 mi
11:54 AM74 °FSunny.18 mph57%29.78 "Hg10 mi
10:54 AM73 °FPassing clouds.20 mph62%29.80 "Hg10 mi
9:54 AM71 °FLight rain. Partly sunny.18 mph68%29.81 "Hg10 mi
8:54 AM71 °FLight rain. Scattered clouds.16 mph73%29.80 "Hg10 mi
7:54 AM70 °FBroken clouds.20 mph79%29.78 "Hg10 mi
6:54 AM69 °FPartly sunny.15 mph84%29.75 "Hg10 mi
5:54 AM70 °FLight rain. Passing clouds.15 mph81%29.75 "Hg10 mi
4:54 AM70 °FLight rain. Overcast.15 mph81%29.75 "Hg10 mi
3:54 AM69 °FLight rain. Overcast.15 mph84%29.76 "Hg10 mi
2:54 AM67 °FLight rain. Overcast.14 mph87%29.78 "Hg10 mi
2:01 AM67 °FRain. Mostly cloudy.12 mph85%29.78 "Hg3 mi
12:54 AM68 °FLight rain. Mostly cloudy.16 mph82%29.79 "Hg7 mi
11:54 PM
Nov 23
65 °FLight rain. Mostly cloudy.14 mph87%29.83 "Hg7 mi
10:54 PM66 °FLight rain. Mostly cloudy.14 mph78%29.88 "Hg5 mi
9:54 PM63 °FLight rain. Mostly cloudy.8 mph81%29.93 "Hg10 mi
8:54 PM62 °FPassing clouds.6 mph80%29.97 "Hg10 mi
Weather by CustomWeather, © 2014

See weather overviewHow to use our weather pages